N605MH KISM-KCAE

Flight info

Callsign N605MH
Flight time 0h 18m
Altitude 45000
Route WORMS GUANO BKENI VIYAP
Aircraft C750/M-SBDE3FGHRWXY/S

Departure

Time 2026-04-16 14:18
Airport Kissimmee Gateway Airport (KISM)

Arrival

Time 2026-04-16 14:37
Airport Columbia Metropolitan Airport (KCAE)
Time Latitude Longitude Altitude Speed Heading
2026-04-16 14:08 28.29339 -81.43517 85 ft 0 kts 131°
2026-04-16 14:15 28.29337 -81.43515 85 ft 1 kts 131°
2026-04-16 14:15 28.29331 -81.43507 85 ft 2 kts 131°
2026-04-16 14:16 28.29340 -81.43519 85 ft 2 kts 131°
2026-04-16 14:16 28.29351 -81.43533 86 ft 2 kts 131°
2026-04-16 14:16 28.29353 -81.43536 86 ft 0 kts 131°
2026-04-16 14:16 28.29352 -81.43523 86 ft 6 kts 91°
2026-04-16 14:17 28.29367 -81.43413 85 ft 24 kts 54°
2026-04-16 14:17 28.29482 -81.43201 87 ft 41 kts 58°
2026-04-16 14:17 28.29452 -81.43017 88 ft 24 kts 208°
2026-04-16 14:17 28.29407 -81.43095 88 ft 9 kts 234°
2026-04-16 14:18 28.29171 -81.43518 84 ft 122 kts 238°
2026-04-16 14:18 28.28636 -81.44505 148 ft 175 kts 238°
2026-04-16 14:18 28.28029 -81.45683 1015 ft 172 kts 240°
2026-04-16 14:18 28.27522 -81.46817 2193 ft 162 kts 254°
2026-04-16 14:19 28.27769 -81.48051 3062 ft 177 kts 308°
2026-04-16 14:19 28.28841 -81.48527 3911 ft 182 kts
2026-04-16 14:19 28.29832 -81.47817 4817 ft 172 kts 56°
2026-04-16 14:19 28.30406 -81.46791 5832 ft 160 kts 59°
2026-04-16 14:20 28.30993 -81.45784 6771 ft 151 kts 58°
2026-04-16 14:20 28.31545 -81.44813 7605 ft 147 kts 59°
2026-04-16 14:20 28.32067 -81.43864 8391 ft 147 kts 59°
2026-04-16 14:20 28.32846 -81.43134 9082 ft 154 kts 27°
2026-04-16 14:21 28.33867 -81.42821 9853 ft 155 kts 10°
2026-04-16 14:21 28.34903 -81.42717 10561 ft 156 kts
2026-04-16 14:21 28.36021 -81.42624 10902 ft 182 kts
2026-04-16 14:21 28.37343 -81.42527 11206 ft 213 kts
2026-04-16 14:22 28.38903 -81.42419 11536 ft 242 kts
2026-04-16 14:22 28.40652 -81.42298 11864 ft 271 kts
2026-04-16 14:22 28.42545 -81.42165 12189 ft 297 kts
2026-04-16 14:22 28.44630 -81.42020 12499 ft 321 kts
2026-04-16 14:23 28.46908 -81.41860 12806 ft 344 kts
2026-04-16 14:23 28.49286 -81.41693 13089 ft 362 kts
2026-04-16 14:23 28.51775 -81.41517 13352 ft 367 kts
2026-04-16 14:23 28.54227 -81.41345 13597 ft 370 kts
2026-04-16 14:24 28.56768 -81.41166 13847 ft 372 kts
2026-04-16 14:24 28.59319 -81.40985 14091 ft 374 kts
2026-04-16 14:24 28.61826 -81.40809 14326 ft 375 kts
2026-04-16 14:24 28.64375 -81.40630 14567 ft 376 kts
2026-04-16 14:25 28.69079 -81.40298 15008 ft 378 kts
2026-04-16 14:25 28.76055 -81.39805 15661 ft 382 kts
2026-04-16 14:25 28.86242 -81.39084 16608 ft 387 kts
2026-04-16 14:25 28.96842 -81.38332 17593 ft 392 kts
2026-04-16 14:26 29.07498 -81.38647 18534 ft 398 kts 353°
2026-04-16 14:26 29.18217 -81.38116 19468 ft 405 kts
2026-04-16 14:26 29.29370 -81.37306 20462 ft 412 kts
2026-04-16 14:26 29.40527 -81.36449 21424 ft 419 kts
2026-04-16 14:27 29.51543 -81.35586 22362 ft 426 kts
2026-04-16 14:27 29.63198 -81.34662 23865 ft 433 kts
2026-04-16 14:27 29.78904 -81.35397 26543 ft 449 kts 356°
2026-04-16 14:27 29.87094 -81.35898 27908 ft 456 kts 355°
2026-04-16 14:28 29.99374 -81.36563 29916 ft 462 kts 355°
2026-04-16 14:28 30.11751 -81.37238 31909 ft 466 kts 354°
2026-04-16 14:28 30.24131 -81.37918 33882 ft 461 kts 354°
2026-04-16 14:28 30.36619 -81.38607 35884 ft 453 kts 353°
2026-04-16 14:29 30.48473 -81.39265 37811 ft 446 kts 353°
2026-04-16 14:29 30.60586 -81.39939 39821 ft 435 kts 352°
2026-04-16 14:29 30.72348 -81.40594 41813 ft 425 kts 352°
2026-04-16 14:29 30.83372 -81.41209 43707 ft 416 kts 351°
2026-04-16 14:30 30.94662 -81.41840 45662 ft 402 kts 351°
2026-04-16 14:30 31.05236 -81.42433 47519 ft 381 kts 351°
2026-04-16 14:30 31.15666 -81.43028 47433 ft 410 kts 352°
2026-04-16 14:30 31.27197 -81.43464 46773 ft 440 kts 359°
2026-04-16 14:31 31.39219 -81.41991 46081 ft 445 kts 359°
2026-04-16 14:31 31.51061 -81.40601 44601 ft 452 kts 359°
2026-04-16 14:31 31.62993 -81.39224 42744 ft 443 kts 358°
2026-04-16 14:31 31.74915 -81.37853 40822 ft 433 kts 358°
2026-04-16 14:32 31.85934 -81.36583 39019 ft 430 kts 358°
2026-04-16 14:32 31.98059 -81.35180 37058 ft 434 kts 359°
2026-04-16 14:32 32.09971 -81.33798 35158 ft 448 kts 359°
2026-04-16 14:32 32.22237 -81.32368 33276 ft 464 kts
2026-04-16 14:33 32.34770 -81.30903 31403 ft 475 kts
2026-04-16 14:33 32.47544 -81.29405 29506 ft 473 kts
2026-04-16 14:33 32.60270 -81.27911 27551 ft 462 kts
2026-04-16 14:33 32.72538 -81.26467 25617 ft 451 kts
2026-04-16 14:34 32.84688 -81.25032 23656 ft 440 kts
2026-04-16 14:34 32.96299 -81.23657 21739 ft 428 kts
2026-04-16 14:34 33.07775 -81.22295 19775 ft 415 kts
2026-04-16 14:34 33.18675 -81.20996 17856 ft 402 kts
2026-04-16 14:35 33.29480 -81.19708 15887 ft 391 kts
2026-04-16 14:35 33.39820 -81.18470 13964 ft 381 kts
2026-04-16 14:35 33.49753 -81.17280 12072 ft 372 kts
2026-04-16 14:35 33.59388 -81.16122 10079 ft 333 kts
2026-04-16 14:36 33.67866 -81.15100 8137 ft 305 kts
2026-04-16 14:36 33.75906 -81.14130 6131 ft 290 kts
2026-04-16 14:36 33.83623 -81.13197 4198 ft 279 kts
2026-04-16 14:36 33.90970 -81.12304 2298 ft 269 kts
2026-04-16 14:37 33.97914 -81.11468 366 ft 258 kts
2026-04-16 14:37 33.98269 -81.11412 262 ft 0 kts 98°